OBJECT C, 66177

Orbit data source: Space-Track

You're viewing an Uncataloged Satellite

Recently launched and/or uncataloged satellites may have evolving metadata. Metadata may include but not limited to: Owner, Maufacturer, Bus, Motor, and Mission.

OBJECT C, 66177 is a satellite owned by SpaceX/Seattle (CN) in LEO that was launched on Sun, 26 Oct 2025 UTC launched from the Xichang Space Center, China (XSC). Unknown objects in Earth's orbit typically refer to objects detected orbiting the Earth but have not yet been identified or cataloged. These objects could be anything from previously untracked satellites, spent rocket stages, debris from satellite collisions, or even natural meteoroids temporarily captured by Earth's gravity.

Loading next visibility...
Identifier
66177, 2025-242C
Orbit
LEO
Country
Flag of CNCN / PRC
Related business
Manufacturer
SpaceX/Seattle
Mission
Spacecraft
Bus & Motor
STARLINK V2MO, Unknown motor
Mass
575 kg wet, ~530 kg dry
Launch date (UTC)
2025-10-26 (2 weeks ago)
Launch vehicle
Unknown
Launch site
Xichang Space Center, China (XSC)
Object type
Unknown
Shape & HBR
Unknown shape, 17.7 m
Radar Cross Section
RCS unknown

Expand to show TLE details & history
Last TLE update: 18 hours ago

TLE from 18 hours ago
0 OBJECT C
1 66177U 25243A   25311.66876791  .02486324  00000-0  11533-1 0  9998
2 66177  53.1528  96.2007 0011206 245.5814 114.4039 15.79470921  1914
Epoch: 2025-11-07T16:03Z
TLE epoch observation values (Epoch: 2025-11-07T16:03:01.547Z)
Latitude
-0.00003°
Longitude
168.33481°
Altitude
335.97 km
Speed
7.706 km/s
True Right ascension
06h 24m 48s
True Declination
0° 00' 00"
Sunlit
Object was in full shadow at epoch
Visualization orbit readout
Latitude
Unknown
Longitude
Unknown
Altitude
Unknown
Speed
Unknown
Apparent Right ascension
Unknown
Apparent Declination
Unknown
Sunlit
N/A
Visualization observer readout
Local Sidereal Time
06:04:14
Azimuth
Unknown
Elevation
Unknown
Doppler factor
Unknown
Orbital elements
Apogee altitude
339.721 km
Perigee altitude
324.682 km
Semi-major axis
6,710.339 km
Eccentricity
0.00112
Inclination
53.1528°
RAAN
96.2007°
Arg. of periapsis
245.5814°
True anomaly
114.52077°
Mean anomaly
114.4039°
Eccentric anomaly
114.46234°
Mean motion
3.94845 °/min
Orbital period
91.18 mins
BSTAR
0.011533
Loading maneuver chart data...
Computing Atmospheric mass density...
Loading historical data...
Loading historical data...
Loading historical data...
Loading historical data...
Loading historical data...
Loading historical data...
Loading historical data...
Other satellites on launch #242 in the year 2025 (2025-10-26 UTC)

Documentation

Showing up to 5 results
|